DW6494 Weather Reports


Display with metric or nautical units.
time (UTC)temp
F
wind
direction
speed
MPH
gust
MPH
rain 1hr
in
rain 24hr
in
rain mn
in
humidity
%
barometer
mb
20210517124653 49 0 0.0 0.0 0.00 0.01 0.00 70 1013.9
20210517124115 49 0 0.0 0.0 0.00 0.01 0.00 71 1013.5
20210517123614 49 0 0.0 0.0 0.00 0.01 0.00 71 1013.5
20210517123041 49 0 0.0 0.0 0.00 0.01 0.00 72 1013.5
20210517122508 48 0 0.0 0.0 0.00 0.01 0.00 73 1013.5
20210517121903 47 0 0.0 0.0 0.00 0.01 0.00 75 1013.5
20210517121330 46 0 0.0 0.0 0.00 0.01 0.00 76 1013.2
20210517120724 46 0 0.0 0.0 0.00 0.01 0.00 75 1013.2
20210517120046 45 0 0.0 0.0 0.00 0.01 0.00 75 1013.2
20210517115545 45 0 0.0 0.0 0.00 0.01 0.00 75 1013.2
20210517115044 45 0 0.0 0.0 0.00 0.01 0.00 75 1013.2
20210517114543 46 0 0.0 0.0 0.00 0.01 0.00 75 1013.2
20210517113906 46 0 0.0 0.0 0.00 0.01 0.00 74 1013.2
20210517113405 46 0 0.0 0.0 0.00 0.01 0.00 74 1013.2
20210517112904 46 0 0.0 0.0 0.00 0.01 0.00 74 1013.2
20210517112403 46 0 0.0 0.0 0.00 0.01 0.00 75 1013.2
20210517111758 46 0 0.0 0.0 0.00 0.01 0.00 75 1013.2
20210517111257 47 0 0.0 0.0 0.00 0.01 0.00 74 1012.9
20210517110724 47 0 0.0 0.0 0.00 0.01 0.00 75 1012.9
20210517110223 46 0 0.0 0.0 0.00 0.01 0.00 76 1012.9
20210517105617 46 0 0.0 0.0 0.00 0.01 0.00 73 1012.9
20210517105044 46 0 0.0 0.0 0.00 0.01 0.00 72 1012.9
20210517104543 47 0 0.0 0.0 0.00 0.01 0.00 73 1012.9
20210517104010 46 0 0.0 0.0 0.00 0.01 0.00 73 1012.9
20210517103402 45 0 0.0 0.0 0.00 0.01 0.00 73 1013.2
20210517102618 45 0 0.0 0.0 0.00 0.01 0.00 72 1013.2
20210517102117 46 0 0.0 0.0 0.00 0.01 0.00 72 1013.2
20210517101617 46 0 0.0 0.0 0.00 0.01 0.00 72 1013.2
20210517101010 46 0 0.0 0.0 0.00 0.01 0.00 72 1013.2
20210517100509 46 0 0.0 0.0 0.00 0.01 0.00 73 1013.2
20210517095756 46 0 0.0 0.0 0.00 0.01 0.00 72 1013.2
20210517095215 46 0 0.0 0.0 0.00 0.01 0.00 71 1013.2
20210517094714 47 0 0.0 0.0 0.00 0.01 0.00 71 1013.2
20210517094213 47 0 0.0 0.0 0.00 0.01 0.00 72 1013.2
20210517093639 47 0 0.0 0.0 0.00 0.01 0.00 72 1013.2
20210517093033 47 0 0.0 0.0 0.00 0.01 0.00 71 1012.9
20210517092501 47 0 0.0 0.0 0.00 0.01 0.00 71 1013.2
20210517091959 47 0 0.0 0.0 0.00 0.01 0.00 70 1012.9
20210517091459 47 0 0.0 0.0 0.00 0.01 0.00 70 1012.9
20210517090958 48 0 0.0 0.0 0.00 0.01 0.00 70 1012.9
20210517090456 48 0 0.0 0.0 0.00 0.01 0.00 71 1012.9
20210517085923 48 0 0.0 0.0 0.00 0.01 0.00 72 1012.9
20210517085422 48 0 0.0 0.0 0.00 0.01 0.00 71 1012.9
20210517084850 48 0 0.0 0.0 0.00 0.01 0.00 70 1012.9
20210517084349 48 0 0.0 0.0 0.00 0.01 0.00 70 1012.9
20210517083816 48 0 0.0 0.0 0.00 0.01 0.00 69 1012.9
20210517082416 50 0 0.0 0.0 0.00 0.01 0.00 66 1012.9
20210517081915 51 0 0.0 0.0 0.00 0.01 0.00 67 1012.9
20210517081414 51 0 0.0 0.0 0.00 0.01 0.00 66 1012.9
20210517080841 52 0 0.0 0.0 0.00 0.01 0.00 66 1013.2
20210517080235 52 0 0.0 0.0 0.00 0.01 0.00 67 1012.9
20210517075734 53 0 0.0 0.0 0.00 0.01 0.00 66 1012.9
20210517075233 53 0 0.0 0.0 0.00 0.01 0.00 68 1012.9
20210517074732 53 0 0.0 0.0 0.00 0.01 0.00 67 1012.9
20210517074231 53 0 0.0 0.0 0.00 0.01 0.00 66 1012.9
20210517073731 54 0 0.0 0.0 0.00 0.01 0.00 66 1012.9
20210517073230 54 0 0.0 0.0 0.00 0.01 0.00 64 1012.9
20210517072657 55 0 0.0 0.0 0.00 0.01 0.00 61 1012.9
20210517071946 56 0 0.0 0.0 0.00 0.01 0.00 60 1012.9
20210517071413 56 0 0.0 0.0 0.00 0.01 0.00 58 1012.9
20210517070912 56 0 0.0 0.0 0.00 0.01 0.00 59 1012.9
20210517070411 55 0 0.0 0.0 0.00 0.01 0.00 60 1012.9
20210517065910 55 0 0.0 0.0 0.00 0.01 0.00 62 1012.9
20210517065409 55 0 0.0 0.0 0.00 0.01 0.00 63 1012.9
20210517064804 55 0 0.0 0.0 0.00 0.01 0.00 64 1012.9
20210517064303 55 0 0.0 0.0 0.00 0.01 0.00 64 1012.9
20210517063802 55 0 0.0 0.0 0.00 0.01 0.00 63 1012.9
20210517063301 56 0 0.0 0.0 0.00 0.01 0.00 62 1012.9
20210517062728 56 0 0.0 0.0 0.00 0.01 0.00 61 1012.9
20210517062228 56 0 0.0 0.0 0.00 0.01 0.00 60 1012.9
20210517061727 56 0 0.0 0.0 0.00 0.01 0.00 60 1012.9
20210517061226 57 0 0.0 0.0 0.00 0.01 0.00 59 1012.9
20210517060725 57 0 0.0 0.0 0.00 0.01 0.00 58 1012.9
20210517060223 57 0 0.0 0.0 0.00 0.01 0.00 58 1012.5
20210517055722 57 0 0.0 0.0 0.00 0.01 0.02 58 1012.5
20210517055117 57 0 0.0 0.0 0.00 0.01 0.02 58 1012.5
20210517054615 58 0 0.0 0.0 0.00 0.01 0.02 57 1012.9
20210517054041 58 0 0.0 0.0 0.00 0.01 0.02 56 1012.9
20210517053507 58 0 0.0 0.0 0.00 0.01 0.02 55 1012.9
20210517053006 58 0 0.0 0.0 0.00 0.01 0.02 55 1013.2
20210517052433 58 0 0.0 0.0 0.00 0.01 0.02 54 1013.2
20210517051931 58 0 0.0 0.0 0.00 0.01 0.02 54 1013.2
20210517051430 59 0 0.0 0.0 0.00 0.01 0.02 53 1013.2
20210517050857 59 0 0.0 0.0 0.00 0.01 0.02 51 1013.2
20210517050356 59 0 0.0 0.0 0.00 0.01 0.02 50 1013.2
20210517045855 59 0 0.0 0.0 0.00 0.01 0.02 51 1012.9
20210517045249 59 0 0.0 0.0 0.00 0.01 0.02 51 1012.9
20210517044748 59 0 0.0 0.0 0.00 0.01 0.02 51 1012.9
20210517044038 60 0 0.0 0.0 0.00 0.01 0.02 49 1012.9
20210517043537 60 0 0.0 0.0 0.00 0.01 0.02 47 1012.9
20210517042931 60 0 0.0 0.0 0.00 0.01 0.02 46 1012.9
20210517042430 61 0 0.0 0.0 0.00 0.01 0.02 45 1012.9
20210517041929 61 0 0.0 0.0 0.00 0.01 0.02 45 1012.9
20210517041324 61 0 0.0 0.0 0.00 0.01 0.02 44 1012.9
20210517040646 61 0 0.0 0.0 0.00 0.01 0.02 45 1012.5
20210517040145 61 0 0.0 0.0 0.00 0.01 0.02 44 1012.9
20210517035612 61 0 0.0 0.0 0.00 0.01 0.02 44 1012.9
20210517035111 61 0 0.0 0.0 0.00 0.01 0.02 44 1012.5
20210517034610 61 0 0.0 0.0 0.00 0.01 0.02 43 1012.9
20210517034036 61 0 0.0 0.0 0.00 0.01 0.02 43 1012.5
20210517033534 61 0 0.0 0.0 0.00 0.01 0.02 43 1012.5
20210517033001 61 0 0.0 0.0 0.00 0.01 0.02 44 1012.5
20210517032500 61 0 0.0 0.0 0.00 0.01 0.02 45 1012.2
20210517031959 61 0 0.0 0.0 0.00 0.01 0.02 45 1012.2
20210517031458 61 0 0.0 0.0 0.00 0.01 0.02 45 1012.2
20210517030924 61 0 0.0 0.0 0.00 0.01 0.02 46 1012.2
20210517030351 61 0 0.0 0.0 0.00 0.01 0.02 46 1012.5
20210517025818 61 0 0.0 0.0 0.00 0.01 0.02 46 1012.2
20210517025317 61 0 0.0 0.0 0.00 0.01 0.02 45 1012.2
20210517024743 61 0 0.0 0.0 0.00 0.01 0.02 45 1012.5
20210517024243 61 0 0.0 0.0 0.00 0.01 0.02 47 1012.5
20210517023709 61 0 0.0 0.0 0.00 0.01 0.02 47 1012.5
20210517023208 61 0 0.0 0.0 0.00 0.01 0.02 48 1012.5
20210517022707 61 0 0.0 0.0 0.00 0.01 0.02 49 1012.2
20210517022206 61 0 0.0 0.0 0.00 0.01 0.02 48 1012.2
20210517021601 61 0 0.0 0.0 0.00 0.01 0.02 47 1012.2
20210517020956 62 0 0.0 0.0 0.00 0.01 0.02 48 1012.2
20210517020454 62 0 0.0 0.0 0.00 0.01 0.02 48 1012.2
20210517015954 62 0 0.0 0.0 0.00 0.01 0.02 47 1012.2
20210517015421 62 0 0.0 0.0 0.00 0.01 0.02 47 1012.2
20210517014815 62 0 0.0 0.0 0.00 0.01 0.02 46 1012.5
20210517014315 62 0 0.0 0.0 0.00 0.01 0.02 46 1012.5
20210517013814 63 0 0.0 0.0 0.00 0.01 0.02 45 1012.2
20210517013313 63 0 0.0 0.0 0.00 0.01 0.02 45 1011.9
20210517012812 63 0 0.0 0.0 0.00 0.01 0.02 43 1011.9
20210517012239 63 0 0.0 0.0 0.00 0.01 0.02 42 1011.5
20210517011705 63 0 0.0 0.0 0.00 0.01 0.02 41 1011.5
20210517011100 63 0 0.0 0.0 0.00 0.01 0.02 41 1011.2
20210517010600 63 0 0.0 0.0 0.00 0.01 0.02 41 1011.2
20210517010058 63 0 0.0 0.0 0.00 0.01 0.02 41 1010.8
20210517005557 63 0 0.0 0.0 0.00 0.01 0.02 41 1011.2
20210517004952 64 0 0.0 0.0 0.00 0.01 0.02 42 1011.2
20210517004451 64 0 0.0 0.0 0.00 0.01 0.02 43 1010.8
20210517003950 64 0 0.0 0.0 0.00 0.01 0.02 41 1011.2
20210517003449 64 0 0.0 0.0 0.00 0.01 0.02 40 1010.5
20210517002916 64 0 0.0 0.0 0.00 0.01 0.02 42 1010.5
20210517002311 64 0 0.0 0.0 0.00 0.01 0.02 42 1010.2
20210517001738 65 0 0.0 0.0 0.00 0.01 0.02 43 1010.5
20210517001237 65 0 0.0 0.0 0.00 0.01 0.02 42 1010.5
20210517000736 66 0 0.0 0.0 0.00 0.01 0.02 41 1010.2
20210517000235 66 0 0.0 0.0 0.00 0.01 0.02 38 1010.2
20210516235630 67 0 0.0 0.0 0.00 0.01 0.02 37 1009.8
20210516235129 67 0 0.0 0.0 0.00 0.01 0.02 37 1009.8
20210516234628 67 0 0.0 0.0 0.00 0.01 0.02 38 1009.8
20210516234055 68 0 0.0 0.0 0.00 0.01 0.02 38 1009.8
20210516233554 68 0 0.0 0.0 0.00 0.01 0.02 40 1009.8
20210516232949 69 0 0.0 0.0 0.00 0.01 0.02 38 1009.8
20210516232448 71 0 0.0 0.0 0.00 0.01 0.02 37 1009.8
20210516231947 72 0 0.0 0.0 0.00 0.01 0.02 35 1009.8
20210516231414 72 0 0.0 0.0 0.00 0.01 0.02 35 1009.8
20210516230912 72 0 0.0 0.0 0.00 0.01 0.02 34 1009.8
20210516230307 72 0 0.0 0.0 0.00 0.01 0.02 33 1009.8
20210516225807 73 0 0.0 0.0 0.00 0.01 0.02 33 1009.8
20210516225233 72 0 0.0 0.0 0.00 0.01 0.02 32 1010.2
20210516224628 72 0 0.0 0.0 0.00 0.01 0.02 32 1010.2
20210516224128 71 0 0.0 0.0 0.00 0.01 0.02 34 1009.8
20210516223626 70 0 0.0 0.0 0.00 0.01 0.02 34 1010.2
20210516223125 71 0 0.0 0.0 0.00 0.01 0.02 34 1010.2
20210516222520 71 0 0.0 0.0 0.00 0.01 0.02 34 1009.8
20210516222019 71 0 0.0 0.0 0.00 0.01 0.02 34 1009.8
20210516221237 71 0 0.0 0.0 0.00 0.01 0.02 33 1009.8
20210516220736 71 0 0.0 0.0 0.00 0.01 0.02 33 1009.5
20210516220202 71 0 0.0 0.0 0.00 0.01 0.02 33 1009.5
20210516215557 72 0 0.0 0.0 0.00 0.01 0.02 33 1009.5
20210516215056 72 0 0.0 0.0 0.00 0.01 0.02 32 1009.8
20210516214555 74 0 0.0 0.0 0.00 0.01 0.02 31 1009.8
20210516214055 74 0 0.0 0.0 0.00 0.01 0.02 30 1009.5
20210516213522 73 0 0.0 0.0 0.00 0.01 0.02 31 1009.5
20210516212812 74 0 0.0 0.0 0.00 0.01 0.02 30 1009.5
20210516212310 74 0 0.0 0.0 0.00 0.01 0.02 31 1009.5
20210516211809 75 0 0.0 0.0 0.00 0.01 0.02 30 1009.5
20210516211204 75 0 0.0 0.0 0.00 0.01 0.02 23 1009.1
20210516210703 74 0 0.0 0.0 0.00 0.01 0.02 30 1009.1
20210516210202 73 0 0.0 0.0 0.00 0.01 0.02 32 1009.5
20210516205524 73 0 0.0 0.0 0.00 0.01 0.02 32 1009.8
20210516205023 74 0 0.0 0.0 0.00 0.01 0.02 32 1009.8
20210516204523 74 0 0.0 0.0 0.00 0.01 0.02 32 1009.8
20210516204022 75 0 0.0 0.0 0.00 0.01 0.02 33 1010.2
20210516203448 75 0 0.0 0.0 0.00 0.01 0.02 34 1010.2
20210516202947 75 0 0.0 0.0 0.00 0.01 0.02 28 1009.8
20210516202414 74 0 0.0 0.0 0.00 0.01 0.02 28 1009.8
20210516201913 75 0 0.0 0.0 0.00 0.01 0.02 30 1009.8
20210516201340 76 0 0.0 0.0 0.00 0.01 0.02 31 1010.2
20210516200839 78 0 0.0 0.0 0.00 0.01 0.02 25 1009.8
20210516200338 78 0 0.0 0.0 0.00 0.01 0.02 28 1009.5
20210516195837 76 0 0.0 0.0 0.00 0.01 0.02 29 1009.5
20210516195232 75 0 0.0 0.0 0.01 0.01 0.02 29 1009.5
20210516194731 74 0 0.0 0.0 0.01 0.01 0.02 30 1009.5
20210516194230 74 0 0.0 0.0 0.01 0.01 0.02 30 1009.5
20210516193729 74 0 0.0 0.0 0.01 0.01 0.02 30 1009.8
20210516193229 74 0 0.0 0.0 0.01 0.01 0.02 29 1009.8
20210516192551 74 0 0.0 0.0 0.01 0.01 0.02 32 1009.8
20210516192050 74 0 0.0 0.0 0.01 0.01 0.02 32 1009.8
20210516191549 74 0 0.0 0.0 0.01 0.01 0.02 34 1010.2
20210516191048 74 0 0.0 0.0 0.01 0.01 0.02 35 1010.2
20210516190442 71 0 0.0 0.0 0.01 0.01 0.02 43 1010.2
20210516185942 70 0 0.0 0.0 0.01 0.01 0.02 46 1010.5
20210516185441 72 0 0.0 0.0 0.00 0.00 0.00 40 1010.5
20210516184907 72 0 0.0 0.0 0.00 0.00 0.00 37 1010.5
20210516184406 73 0 0.0 0.0 0.00 0.00 0.00 32 1010.2
20210516183624 74 0 0.0 0.0 0.00 0.00 0.00 32 1010.2
20210516183123 75 0 0.0 0.0 0.00 0.00 0.00 29 1010.2
20210516182622 77 0 0.0 0.0 0.00 0.00 0.00 28 1010.2
20210516181840 77 0 0.0 0.0 0.00 0.00 0.00 28 1010.2
20210516181340 78 0 0.0 0.0 0.00 0.00 0.00 29 1010.2
20210516180806 79 0 0.0 0.0 0.00 0.00 0.00 25 1010.5
20210516180305 78 0 0.0 0.0 0.00 0.00 0.00 26 1010.5
20210516175700 76 0 0.0 0.0 0.00 0.00 0.00 28 1010.5
20210516175158 77 0 0.0 0.0 0.00 0.00 0.00 29 1010.5
20210516174521 77 0 0.0 0.0 0.00 0.00 0.00 29 1010.8
20210516174019 79 0 0.0 0.0 0.00 0.00 0.00 25 1010.8
20210516173446 79 0 0.0 0.0 0.00 0.00 0.00 28 1010.8
20210516172945 78 0 0.0 0.0 0.00 0.00 0.00 29 1010.8
20210516172444 78 0 0.0 0.0 0.00 0.00 0.00 29 1010.8
20210516171943 77 0 0.0 0.0 0.00 0.00 0.00 30 1010.8
20210516171443 76 0 0.0 0.0 0.00 0.00 0.00 30 1011.2
20210516170942 74 0 0.0 0.0 0.00 0.00 0.00 31 1011.2
20210516170408 75 0 0.0 0.0 0.00 0.00 0.00 30 1011.2
20210516165802 75 0 0.0 0.0 0.00 0.00 0.00 30 1011.2
20210516165053 74 0 0.0 0.0 0.00 0.00 0.00 30 1011.2
20210516164552 74 0 0.0 0.0 0.00 0.00 0.00 30 1011.5
20210516164051 73 0 0.0 0.0 0.00 0.00 0.00 32 1011.5
20210516163342 74 0 0.0 0.0 0.00 0.00 0.00 31 1011.5
20210516162841 73 0 0.0 0.0 0.00 0.00 0.00 34 1011.5
20210516162308 73 0 0.0 0.0 0.00 0.00 0.00 33 1011.5
20210516161807 73 0 0.0 0.0 0.00 0.00 0.00 34 1011.9
20210516161306 73 0 0.0 0.0 0.00 0.00 0.00 34 1011.9
20210516160806 73 0 0.0 0.0 0.00 0.00 0.00 34 1011.9
20210516160200 72 0 0.0 0.0 0.00 0.00 0.00 36 1011.9
20210516155659 73 0 0.0 0.0 0.00 0.00 0.00 34 1011.9
20210516155158 74 0 0.0 0.0 0.00 0.00 0.00 34 1011.9
20210516154657 75 0 0.0 0.0 0.00 0.00 0.00 32 1011.9
20210516154156 74 0 0.0 0.0 0.00 0.00 0.00 35 1011.5
20210516153655 73 0 0.0 0.0 0.00 0.00 0.00 37 1011.5
20210516153050 71 0 0.0 0.0 0.00 0.00 0.00 39 1011.9
20210516152549 69 0 0.0 0.0 0.00 0.00 0.00 39 1011.9
20210516152048 67 0 0.0 0.0 0.00 0.00 0.00 42 1011.9
20210516151547 65 0 0.0 0.0 0.00 0.00 0.00 42 1012.2
20210516150200 62 0 0.0 0.0 0.00 0.00 0.00 48 1012.2
20210516145659 60 0 0.0 0.0 0.00 0.00 0.00 49 1012.2
20210516145126 60 0 0.0 0.0 0.00 0.00 0.00 49 1012.5
20210516144625 61 0 0.0 0.0 0.00 0.00 0.00 48 1012.2
20210516144124 62 0 0.0 0.0 0.00 0.00 0.00 46 1012.2
20210516143551 62 0 0.0 0.0 0.00 0.00 0.00 46 1012.2
20210516143018 64 0 0.0 0.0 0.00 0.00 0.00 43 1012.2
20210516142412 65 0 0.0 0.0 0.00 0.00 0.00 43 1012.2
20210516141839 65 0 0.0 0.0 0.00 0.00 0.00 41 1012.5
20210516141338 65 0 0.0 0.0 0.00 0.00 0.00 41 1012.5
20210516140837 65 0 0.0 0.0 0.00 0.00 0.00 41 1012.2
20210516140304 64 0 0.0 0.0 0.00 0.00 0.00 42 1012.2
20210516135658 64 0 0.0 0.0 0.00 0.00 0.00 41 1012.2
20210516135158 65 0 0.0 0.0 0.00 0.00 0.00 41 1012.2
20210516134624 64 0 0.0 0.0 0.00 0.00 0.00 42 1012.2
20210516133914 64 0 0.0 0.0 0.00 0.00 0.00 42 1012.2
20210516133414 62 0 0.0 0.0 0.00 0.00 0.00 46 1012.2
20210516132840 61 0 0.0 0.0 0.00 0.00 0.00 46 1012.2
20210516132340 59 0 0.0 0.0 0.00 0.00 0.00 51 1012.2
20210516130848 55 0 0.0 0.0 0.00 0.00 0.00 56 1012.2
20210516130314 53 0 0.0 0.0 0.00 0.00 0.00 58 1012.2
20210516125741 53 0 0.0 0.0 0.00 0.00 0.00 56 1011.9
20210516125208 52 0 0.0 0.0 0.00 0.00 0.00 57 1011.9